Location: East Horndon
(51.5667°N, 0.3500°E)
Time: 11:13:03
(UTC+00:00)

Cosmos 2219 Rocket - Pass Details

Date: 08 November 2025
Orbit: 825 x 847 km, 71.0° (Epoch: 10 December)

Event Time Altitude Azimuth Distance (km) Brightness Sun altitude
Exits shadow 02:55:19 27° 86° (E) 1,566 4.0 -38.4°
Drops below altitude 10° 02:59:04 10° 47° (NE) 2,475 5.3 -37.8°
Sets 03:01:48 0° 37° (NE) 3,417 6.1 -37.4°
